When you browse on this site, cookies collect data to enhance your experience and personalize the content and advertising you see.
Visit our Privacy Policy to learn more. By continuing to use the site, you agree to this use of cookies and data.
  • In Deutschland
  • Länderverzeichnis
  • Für 7 Tage
  • Wassertemperatur
  • Wetterkarte
  • Widgets
  • user-avatar
    Anmelden

    Stündliche Wetter Kashina

    Heute, 22 Oktober, Dienstag

    Zeit Temperatur Niederschläge Wind Luftdruck Luftfeuchtigkeit
    00:00 +3°C° 0 mm 3 m/S 743 mmHg 94%
    01:00 +3°C° 0 mm 4 m/S 743 mmHg 93%
    02:00 +3°C° 0 mm 4 m/S 742 mmHg 92%
    03:00 +4°C° 0 mm 4 m/S 741 mmHg 91%
    04:00 +3°C° 0 mm 5 m/S 740 mmHg 88%
    05:00 +3°C° 0.3 mm 5 m/S 740 mmHg 88%
    06:00 +5°C° 0.3 mm 5 m/S 739 mmHg 89%
    07:00 +4°C° 0.3 mm 6 m/S 738 mmHg 89%
    08:00 +4°C° 0.2 mm 6 m/S 738 mmHg 88%
    09:00 +4°C° 0.2 mm 6 m/S 737 mmHg 87%
    10:00 +5°C° 0.2 mm 6 m/S 737 mmHg 86%
    11:00 +6°C° 0.1 mm 5 m/S 737 mmHg 87%
    12:00 +6°C° 0.1 mm 5 m/S 737 mmHg 87%
    13:00 +6°C° 0.1 mm 4 m/S 738 mmHg 88%
    14:00 +5°C° 0 mm 4 m/S 738 mmHg 86%
    15:00 +4°C° 0 mm 4 m/S 738 mmHg 84%
    16:00 +3°C° 0 mm 3 m/S 739 mmHg 82%
    17:00 +3°C° 0 mm 3 m/S 739 mmHg 83%
    18:00 +2°C° 0 mm 3 m/S 739 mmHg 84%
    19:00 +2°C° 0 mm 3 m/S 740 mmHg 84%
    20:00 +1°C° 0 mm 3 m/S 740 mmHg 86%
    21:00 +1°C° 0 mm 3 m/S 740 mmHg 88%
    22:00 0°C° 0 mm 3 m/S 740 mmHg 89%
    23:00 0°C° 0 mm 3 m/S 740 mmHg 90%

    Morgen, 23 Oktober, Mittwoch

    Zeit Temperatur Niederschläge Wind Luftdruck Luftfeuchtigkeit
    00:00 -1°C° 0 mm 3 m/S 740 mmHg 90%
    01:00 -1°C° 0 mm 3 m/S 740 mmHg 90%
    02:00 -1°C° 0 mm 2 m/S 740 mmHg 90%
    03:00 -2°C° 0 mm 2 m/S 741 mmHg 91%
    04:00 -2°C° 0 mm 2 m/S 741 mmHg 91%
    05:00 -2°C° 0 mm 2 m/S 741 mmHg 89%
    06:00 -2°C° 0 mm 2 m/S 741 mmHg 88%
    07:00 -2°C° 0 mm 2 m/S 741 mmHg 87%
    08:00 -1°C° 0 mm 3 m/S 741 mmHg 83%
    09:00 -2°C° 0 mm 4 m/S 741 mmHg 80%
    10:00 -1°C° 0 mm 4 m/S 741 mmHg 76%
    11:00 0°C° 0 mm 4 m/S 740 mmHg 74%
    12:00 0°C° 0 mm 5 m/S 740 mmHg 72%
    13:00 +1°C° 0 mm 5 m/S 739 mmHg 70%
    14:00 +1°C° 0 mm 4 m/S 739 mmHg 73%
    15:00 +1°C° 0 mm 4 m/S 739 mmHg 76%
    16:00 0°C° 0 mm 4 m/S 738 mmHg 79%
    17:00 +1°C° 0 mm 4 m/S 738 mmHg 82%
    18:00 +1°C° 0 mm 4 m/S 737 mmHg 85%
    19:00 +1°C° 0 mm 4 m/S 737 mmHg 88%
    20:00 +2°C° 0 mm 5 m/S 736 mmHg 87%
    21:00 +2°C° 0 mm 5 m/S 736 mmHg 86%
    22:00 +3°C° 0 mm 5 m/S 735 mmHg 85%
    23:00 +3°C° 0.1 mm 5 m/S 735 mmHg 86%

    übermorgen, 24 Oktober, Donnerstag

    Zeit Temperatur Niederschläge Wind Luftdruck Luftfeuchtigkeit
    00:00 +5°C° 0.1 mm 5 m/S 734 mmHg 86%
    01:00 +5°C° 0.1 mm 5 m/S 734 mmHg 87%
    02:00 +5°C° 0.2 mm 4 m/S 734 mmHg 88%
    03:00 +5°C° 0.2 mm 4 m/S 735 mmHg 89%
    04:00 +6°C° 0.2 mm 4 m/S 735 mmHg 89%
    05:00 +5°C° 0 mm 4 m/S 735 mmHg 89%
    06:00 +4°C° 0 mm 3 m/S 736 mmHg 89%
    07:00 +4°C° 0 mm 3 m/S 737 mmHg 89%
    08:00 +4°C° 0 mm 3 m/S 737 mmHg 84%
    09:00 +4°C° 0 mm 4 m/S 738 mmHg 79%
    10:00 +5°C° 0 mm 4 m/S 738 mmHg 75%
    11:00 +5°C° 0 mm 4 m/S 739 mmHg 73%
    12:00 +5°C° 0 mm 4 m/S 739 mmHg 72%
    13:00 +6°C° 0 mm 4 m/S 739 mmHg 71%
    14:00 +5°C° 0 mm 4 m/S 739 mmHg 74%
    15:00 +5°C° 0 mm 3 m/S 740 mmHg 77%
    16:00 +4°C° 0 mm 3 m/S 740 mmHg 79%
    17:00 +4°C° 0 mm 2 m/S 740 mmHg 82%
    18:00 +3°C° 0 mm 2 m/S 741 mmHg 85%
    19:00 +3°C° 0 mm 2 m/S 741 mmHg 88%
    20:00 +2°C° 0 mm 2 m/S 741 mmHg 89%
    21:00 +2°C° 0 mm 2 m/S 742 mmHg 90%
    22:00 +2°C° 0 mm 2 m/S 742 mmHg 91%
    23:00 +1°C° 0 mm 2 m/S 742 mmHg 92%

    25 Oktober, Freitag

    Zeit Temperatur Niederschläge Wind Luftdruck Luftfeuchtigkeit
    00:00 +1°C° 0 mm 2 m/S 742 mmHg 92%
    01:00 +1°C° 0 mm 2 m/S 742 mmHg 93%
    02:00 +1°C° 0 mm 2 m/S 742 mmHg 93%
    03:00 -1°C° 0 mm 2 m/S 742 mmHg 93%
    04:00 -1°C° 0 mm 2 m/S 742 mmHg 93%
    05:00 -1°C° 0 mm 2 m/S 742 mmHg 92%
    06:00 -1°C° 0 mm 2 m/S 742 mmHg 92%
    07:00 -1°C° 0 mm 2 m/S 742 mmHg 92%
    08:00 +1°C° 0 mm 3 m/S 742 mmHg 88%
    09:00 +2°C° 0 mm 3 m/S 742 mmHg 84%
    10:00 +3°C° 0 mm 4 m/S 742 mmHg 80%
    11:00 +3°C° 0 mm 4 m/S 742 mmHg 80%
    12:00 +3°C° 0 mm 4 m/S 742 mmHg 80%
    13:00 +4°C° 0 mm 4 m/S 742 mmHg 79%
    14:00 +4°C° 0 mm 4 m/S 742 mmHg 81%
    15:00 +3°C° 0 mm 4 m/S 742 mmHg 82%
    16:00 +3°C° 0 mm 4 m/S 742 mmHg 83%
    17:00 +3°C° 0 mm 3 m/S 742 mmHg 85%
    18:00 +3°C° 0 mm 3 m/S 742 mmHg 87%
    19:00 +3°C° 0 mm 3 m/S 742 mmHg 88%
    20:00 +4°C° 0 mm 3 m/S 742 mmHg 88%
    21:00 +4°C° 0 mm 3 m/S 742 mmHg 88%
    22:00 +4°C° 0 mm 4 m/S 742 mmHg 88%
    23:00 +4°C° 0 mm 4 m/S 742 mmHg 89%

    26 Oktober, Samstag

    Zeit Temperatur Niederschläge Wind Luftdruck Luftfeuchtigkeit
    00:00 +4°C° 0 mm 4 m/S 742 mmHg 89%
    01:00 +4°C° 0 mm 4 m/S 742 mmHg 90%
    02:00 +4°C° 0 mm 3 m/S 743 mmHg 90%
    03:00 +4°C° 0 mm 3 m/S 743 mmHg 90%
    04:00 +5°C° 0 mm 2 m/S 744 mmHg 91%
    05:00 +4°C° 0 mm 2 m/S 744 mmHg 92%
    06:00 +4°C° 0 mm 2 m/S 744 mmHg 92%
    07:00 +4°C° 0 mm 2 m/S 744 mmHg 93%
    08:00 +5°C° 0 mm 2 m/S 745 mmHg 91%
    09:00 +4°C° 0 mm 3 m/S 745 mmHg 89%
    10:00 +5°C° 0 mm 3 m/S 745 mmHg 88%
    11:00 +5°C° 0 mm 3 m/S 745 mmHg 84%
    12:00 +7°C° 0 mm 3 m/S 745 mmHg 81%
    13:00 +6°C° 0 mm 4 m/S 745 mmHg 78%
    14:00 +7°C° 0 mm 3 m/S 745 mmHg 79%
    15:00 +7°C° 0 mm 3 m/S 745 mmHg 81%
    16:00 +7°C° 0 mm 3 m/S 744 mmHg 82%
    17:00 +5°C° 0 mm 3 m/S 744 mmHg 84%
    18:00 +5°C° 0 mm 3 m/S 744 mmHg 85%
    19:00 +5°C° 0 mm 3 m/S 743 mmHg 87%
    20:00 +6°C° 0 mm 4 m/S 743 mmHg 87%
    21:00 +7°C° 0 mm 4 m/S 742 mmHg 87%
    22:00 +7°C° 0 mm 4 m/S 742 mmHg 87%
    23:00 +7°C° 0 mm 4 m/S 741 mmHg 87%

    27 Oktober, Sonntag

    Zeit Temperatur Niederschläge Wind Luftdruck Luftfeuchtigkeit
    00:00 +8°C° 0 mm 4 m/S 741 mmHg 87%
    01:00 +8°C° 0 mm 4 m/S 741 mmHg 87%
    02:00 +8°C° 0 mm 4 m/S 741 mmHg 86%
    03:00 +7°C° 0 mm 5 m/S 740 mmHg 85%
    04:00 +7°C° 0 mm 5 m/S 740 mmHg 83%
    05:00 +7°C° 0 mm 5 m/S 740 mmHg 84%
    06:00 +7°C° 0 mm 5 m/S 740 mmHg 84%
    07:00 +7°C° 0 mm 4 m/S 740 mmHg 84%
    08:00 +8°C° 0 mm 5 m/S 740 mmHg 80%
    09:00 +9°C° 0 mm 5 m/S 740 mmHg 77%
    10:00 +10°C° 0 mm 6 m/S 740 mmHg 73%
    11:00 +10°C° 0 mm 6 m/S 739 mmHg 69%
    12:00 +11°C° 0 mm 6 m/S 739 mmHg 65%
    13:00 +11°C° 0 mm 6 m/S 739 mmHg 62%
    14:00 +11°C° 0 mm 6 m/S 738 mmHg 66%
    15:00 +12°C° 0 mm 5 m/S 738 mmHg 70%
    16:00 +10°C° 0 mm 5 m/S 737 mmHg 74%
    17:00 +10°C° 0 mm 5 m/S 737 mmHg 75%
    18:00 +10°C° 0 mm 6 m/S 737 mmHg 76%
    19:00 +9°C° 0 mm 6 m/S 736 mmHg 77%
    20:00 +9°C° 0 mm 6 m/S 736 mmHg 76%
    21:00 +9°C° 0 mm 6 m/S 736 mmHg 75%
    22:00 +8°C° 0 mm 6 m/S 736 mmHg 74%
    23:00 +8°C° 0 mm 6 m/S 735 mmHg 74%

    28 Oktober, Montag

    Zeit Temperatur Niederschläge Wind Luftdruck Luftfeuchtigkeit
    00:00 +8°C° 0 mm 6 m/S 735 mmHg 73%
    01:00 +8°C° 0 mm 6 m/S 734 mmHg 72%
    02:00 +8°C° 0 mm 6 m/S 734 mmHg 71%
    03:00 +8°C° 0 mm 6 m/S 734 mmHg 70%
    04:00 +8°C° 0 mm 6 m/S 733 mmHg 69%
    05:00 +7°C° 0 mm 6 m/S 733 mmHg 69%
    06:00 +7°C° 0 mm 6 m/S 732 mmHg 69%
    07:00 +7°C° 0 mm 5 m/S 732 mmHg 69%
    08:00 +8°C° 0 mm 6 m/S 732 mmHg 69%
    09:00 +8°C° 0 mm 6 m/S 731 mmHg 68%
    10:00 +8°C° 0 mm 6 m/S 731 mmHg 68%
    11:00 +9°C° 0 mm 6 m/S 731 mmHg 69%
    12:00 +9°C° 0 mm 6 m/S 731 mmHg 71%
    13:00 +9°C° 0 mm 5 m/S 730 mmHg 73%
    14:00 +9°C° 0.1 mm 5 m/S 730 mmHg 73%
    15:00 +8°C° 0.1 mm 5 m/S 730 mmHg 73%
    16:00 +8°C° 0.1 mm 4 m/S 729 mmHg 74%
    17:00 +8°C° 0.1 mm 5 m/S 729 mmHg 76%
    18:00 +8°C° 0.1 mm 5 m/S 729 mmHg 78%
    19:00 +8°C° 0.1 mm 5 m/S 729 mmHg 80%
    20:00 +7°C° 0.3 mm 4 m/S 729 mmHg 83%
    21:00 +7°C° 0.3 mm 4 m/S 729 mmHg 85%
    22:00 +8°C° 0.3 mm 3 m/S 728 mmHg 88%
    23:00 +7°C° 0.8 mm 3 m/S 728 mmHg 89%
    Mehr zeigen